www.pogodaiklimat.ru

Погода и климат >> Архив погоды >> Украина >> Харьков


АРХИВ ПОГОДЫ в Харькове

Время (UTC), дата Ветер
(напр.,м/с)
 
Видим.   Явления Облачность Т
(С)
Тd
(С)
f
(%)
Тe
(С)
Тes
(С)
Комфортность P
(гПа)
Po
(гПа)
Тmin
(С)
Tmax
(С)
R
(мм)
R24
(мм)
S
(см)
00 10.01 В 6 7000 м слаб. снег 10/10 660 м
[Sc]
-6.9 -8.5 88 -15 -15 прохладно 1019.9 999.9
03 10.01 В 6 3200 м слаб. ливневой снег 10/10 450 м
[Cb cap]
-6.5 -8.1 88 -15 -15 прохладно 1019.1 999.1
06 10.01 ЮВ 5 4700 м слаб. снег 10/8 180 м
[Frnb As op]
-5.1 -6.8 88 -12 -12 по сезону 1020.0 1000.1 -7.6 0.8 28
09 10.01 ЮВ 6 5000 м слаб. снег 10/8 210 м
[Frnb As op]
-3.6 -5.0 90 -11 -11 по сезону 1020.2 1000.4
12 10.01 ЮВ 4 8000 м дымка {ливн. осадки, снег} 10/10 240 м
[Sc]
-1.9 -3.7 87 -8 -8 по сезону 1019.9 1000.3
15 10.01 В 5 3000 м слаб. снег 10/10 180 м
[Sc]
-2.2 -3.7 89 -9 -9 по сезону 1019.0 999.4
18 10.01 В 5 1600 м слаб. снег 10/8 300 м
[Frnb As op]
-2.7 -3.7 93 -10 -10 по сезону 1018.9 999.2 -1.9 1
21 10.01 В 5 1800 м снег 10/8 400 м
[Frnb As op]
-2.5 -3.8 91 -9 -9 по сезону 1017.5 997.9
00 11.01 В 6 2800 м слаб. снег {метель} 10/8 240 м
[Frnb As op]
-2.5 -3.8 91 -10 -10 по сезону 1016.1 996.5
03 11.01 В 4 7000 м слаб. снег 10/10 360 м
[Sc]
-2.8 -4.1 91 -9 -9 по сезону 1014.8 995.2
06 11.01 В 2 6000 м дымка {снег} 10/10 120 м
[St]
-3.1 -4.1 93 -7 -7 по сезону 1014.5 994.9 -3.1 4 35
09 11.01 С 2 1500 м дымка 10/10 120 м
[St]
-3.0 -4.3 91 -7 -7 по сезону 1013.1 993.5
12 11.01 СВ 4 6000 м дымка 10/8 180 м
[Sc Ac und]
-2.6 -4.2 89 -9 -9 по сезону 1010.5 991.0
15 11.01 С 6 6000 м слаб. ливневой снег 10/10 240 м
[Cb cap]
-3.2 -4.6 90 -11 -11 по сезону 1007.5 988.0
18 11.01 С 4 700 м сильн. снег {ливн. осадки} 10/8 180 м
[Frnb As op]
-3.8 -4.9 92 -10 -10 по сезону 1006.9 987.4 -2.6 6
21 11.01 С 3 4200 м слаб. снег 10/6 240 м
[Frnb As op]
-3.8 -4.9 92 -9 -9 по сезону 1005.4 985.9
00 12.01 СЗ 3 1500 м ливневой снег 10/10 180 м
[Cb cap]
-4.2 -5.4 91 -10 -10 по сезону 1005.0 985.5
03 12.01 СЗ 5 6000 м в посл. час снег {ливн. осадки} 10/8 210 м
[Frnb As op]
-5.4 -6.8 90 -13 -13 по сезону 1004.7 985.1
06 12.01 З 3 4000 м слаб. снег 10/10 270 м
[Sc]
-7.4 -9.1 88 -13 -13 по сезону 1006.3 986.5 -7.4 6 42
09 12.01 З 7 10 км {снег} 8/8 300 м
[St]
-10.6 -12.9 83 -20 -20 очень
холодно
1007.2 987.2
12 12.01 ЮЗ 6 7000 м слаб. ливневой снег 10/10 330 м
[Cb cap]
-11.8 -14.4 81 -21 -21 очень
холодно
1007.2 987.1
15 12.01 Ю 4 10 км {ливн. осадки, снег} 8/5 300 м
[St Ac trans]
-11.2 -13.7 82 -18 -18 очень
холодно
1006.3 986.2
18 12.01 Ю 4 4000 м слаб. ливневой снег 10/10 360 м
[Cb cap]
-9.5 -11.6 85 -16 -16 холодно 1006.0 986.1 -7.4 0.2
21 12.01 ЮЗ 2 3700 м слаб. снег 10/5 330 м
[Frnb As op]
-8.6 -10.5 86 -13 -13 прохладно 1004.8 985.0
00 13.01 З 3 7000 м дымка {ливн. осадки, снег} 10/10 270 м
[Sc]
-7.1 -8.8 88 -13 -13 прохладно 1004.8 985.1
03 13.01 ЮЗ 3 7000 м в посл. час снег 10/10 300 м
[Sc]
-6.2 -7.7 89 -12 -12 по сезону 1004.5 984.8
06 13.01 ЮЗ 4 5000 м слаб. ливневой снег 10/10 300 м
[Cb cap]
-5.1 -7.2 85 -12 -12 по сезону 1005.3 985.7 -9.5 0.5 42
09 13.01 ЮЗ 5 10 км {ливн. осадки} 10/10 300 м
[Cb cap]
-4.0 -6.2 85 -11 -11 по сезону 1005.8 986.3
12 13.01 ЮЗ 4 10 км {ливн. осадки, снег} 10/10 600 м
[Sc]
-3.0 -5.3 84 -9 -9 по сезону 1005.1 985.7
15 13.01 Ю 3 10 км 10/10 300 м
[Sc]
-3.1 -5.5 83 -8 -8 по сезону 1005.1 985.7
18 13.01 Ю 4 7000 м дымка 10/10 1020 м
[Sc]
-3.3 -5.4 85 -9 -9 по сезону 1004.4 985.0 -3.0 0.4
21 13.01 Ю 5 8000 м дымка 10/10 960 м
[Sc]
-2.8 -5.1 84 -10 -10 по сезону 1003.5 984.1
00 14.01 Ю 6 10 км 10/10 960 м
[Sc]
-2.5 -5.4 80 -10 -10 по сезону 1002.1 982.8
03 14.01 Ю 6 10 км 10/10 960 м
[Sc]
-2.7 -5.7 80 -10 -10 по сезону 1001.0 981.7
06 14.01 Ю 6 10 км 10/10 960 м
[Sc]
-2.7 -6.0 78 -10 -10 по сезону 1000.7 981.4 -3.3 40
09 14.01 Ю 7 10 км позёмок 10/10 960 м
[Sc]
-2.7 -6.7 74 -10 -10 по сезону 999.5 980.2
12 14.01 ЮВ 6 5000 м слаб. снег {метель} 10/8 300 м
[Frnb As op]
-2.4 -4.3 87 -10 -10 по сезону 997.4 978.2
15 14.01 ЮВ 6 10 км {снег} 10/10 270 м
[Sc]
-1.0 -2.9 87 -8 -8 по сезону 996.7 977.6
18 14.01 ЮВ 6 10 км {снег} 10/10 210 м
[Sc]
+0.4 -1.3 88 -6 -6 по сезону 995.9 976.9 +0.4 0.3
21 14.01 ЮВ 6 10 км 10/10 270 м
[Sc]
+1.2 -0.7 87 -5 -5 по сезону 995.0 976.1
00 15.01 Ю 6 9000 м слаб. ливневой снег 10/10 180 м
[Cb cap]
+0.7 -0.7 90 -6 -6 по сезону 994.6 975.6
03 15.01 ЮЗ 7 10 км слаб. дождь со снегом 10/8 240 м
[Frnb As op]
+1.0 -0.4 90 -6 -6 по сезону 995.2 976.3
06 15.01 ЮЗ 7 10 км слаб. дождь со снегом 10/8 240 м
[Frnb As op]
+1.0 -0.4 90 -6 -6 по сезону 995.2 976.3
09 15.01 З 4 10 км 8/4 600 м
[Sc Ac trans]
+0.7 -4.2 70 -4 -4 по сезону 1000.5 981.4
12 15.01 ЮЗ 2 10 км 6/3 600 м
[Sc Ac trans]
-0.6 -4.3 76 -4 -4 по сезону 1001.6 982.4
15 15.01 ЮЗ 2 10 км 9/0
[Ac trans]
-2.3 -5.9 76 -6 -6 по сезону 1002.5 983.2
18 15.01 З 2 10 км 9/0
[Ac trans]
-3.8 -7.1 78 -8 -8 по сезону 1002.5 983.1 +0.8
21 15.01 З 3 10 км 9/0
[Ac trans]
-4.6 -7.7 79 -10 -10 по сезону 1002.5 983.0
00 16.01 ЮЗ 1 10 км 10/0
[Ac und]
-6.2 -8.9 81 -9 -9 по сезону 1001.9 982.3
03 16.01 ЮЗ 2 10 км 10/0
[Ac und]
-7.7 -9.5 87 -12 -12 по сезону 1000.9 981.2
06 16.01 З 3 7000 м дымка 5/0
[Ac trans Ci fib]
-8.6 -10.1 89 -14 -14 прохладно 1001.1 981.3 -8.6 34
09 16.01 ЮЗ 3 10 км 9/9 870 м
[Sc]
-6.5 -8.8 84 -12 -12 прохладно 1002.4 982.8
12 16.01 З 3 10 км 9/4 300 м
[Sc Ac trans]
-4.4 -7.8 77 -10 -9 по сезону 1003.6 984.1
15 16.01 ЮЗ 3 10 км 9/9 700 м
[Sc]
-5.3 -8.2 80 -11 -11 по сезону 1006.3 986.7
18 16.01 ЮЗ 3 10 км 9/9 300 м
[St]
-5.7 -8.3 82 -11 -11 по сезону 1009.3 989.6 -4.4

 

Местоположение метеостанции Харьков (Харьковская область, Украина): широта 49.97 долгота 36.13 высота над уровнем моря 155 м.

В архиве по умолчанию представлена погода в Харькове за последнюю неделю. Архивные данные за месяц целиком и за предыдущие месяцы, начиная с января 2011 года, Вы можете получить, выбрав интересующий диапазон дат из раскрывающегося списка и нажав кнопку "Ввод!".


*Определитесь, кто Вы:
робот инопланетянин человек

Внимание! Время в таблицах - всемирное. Для получения местного времени необходимо прибавить поправку, которая равна 2 ч.

Смотрите также архив погоды в соседних городах и на ближайших метеорологических станциях:

Погода в Золочеве (Львовская область, Украина) (39 км)
Погода в Боходухове (Харьковская область, Украина) (50 км)
Погода в Комсомольском (Донецкая область, Украина) (50 км)
Погода в Коломаке (Харьковская область, Украина) (66 км)
Погода в Белгороде (Белгородская область, Россия) (80 км)
Погода в Краснограде (Харьковская область, Украина) (82 км)
Погода в Великом Бурлуке (Харьковская область, Украина) (90 км)
Погода в Готне (Белгородская область, Россия) (96 км)
Погода в Купянске (Харьковская область, Украина) (119 км)
Погода в Лозовой (Харьковская область, Украина) (120 км)

Пояснения к столбцам:

Ветер - указаны скорость ветра в м/с - средняя за 10 мин, порывы в срок и между сроками (в фигурных скобках) и направление, откуда дует ветер: С - северный, СВ - северо-восточный, В - восточный, ЮВ - юго-восточный, Ю - южный, ЮЗ - юго-западный, З - западный, СЗ - северо-западный.
Видимость - горизонтальная дальность видимости в метрах или километрах. При видимости от 1 до 10 км при отсутствии осадков обычно наблюдается дымка, при ухудшении видимости до 1 км и менее - туман. В сухую погоду видимость может ухудшаться дымом, пылью или мглою.
Явления - указаны атмосферные явления, наблюдавшиеся в срок или в последний час перед сроком; фигурными скобками обозначены явления, наблюдавшиеся между сроками (за 1-3 часа до срока); квадратными скобками обозначены град или гололедные отложения с указанием их диаметра в мм.
Облачность - указаны через наклонную черту общая и нижняя облачность в баллах и высота нижней границы облаков в метрах; квадратными скобками обозначены формы облаков: Ci - перистые, Cs - перисто-слоистые, Cc - перисто-кучевые, Ac - высококучевые, As - высокослоистые, Sc - слоисто-кучевые, Ns - слоисто-дождевые, Cu - кучевые, Cb - кучево-дождевые. Подробнее классификацию облаков см. в Атласе облаков (PDF).
T - Температура воздуха - температура, измеренная на высоте 2 м над землей.
Td - Температура точки росы - температура, при понижении до которой содержащийся в воздухе водяной пар достигнет насыщения.
f - Относительная влажность воздуха - влажноcть воздуха, измеренная на высоте 2 м над землей.
Te - Эффективная температура - температура, которую ощущает одетый по сезону человек в тени. Характеристика душности погоды. При расчете учитывается влияние влажности воздуха и скорости ветра на теплоощущения человека.
Tes - Эффективная температура на солнце - температура, которую ощущает человек, с поправкой на солнечный нагрев. Характеристика знойности погоды. Зависит от высоты солнца над горизонтом, облачности и скорости ветра. Ночью, в пасмурную погоду, а также при ветре 12 м/с и более поправка равна нулю.
P - Атмосферное давление - приведенное к уровню моря атмосферное давление.
Po - Атмосферное давление - измеренное на уровне метеостанции атмосферное давление.
Tmin - Минимальная температура - минимум температуры воздуха на высоте 2 м над землей.
Tmax - Максимальная температура - максимум температуры воздуха на высоте 2 м над землей.
R - Количество осадков - Количество выпавших осадков за период времени, мм. При наведении курсора мыши на число - период времени, за который выпало указанное количество осадков.
R24 - Количество осадков - Количество выпавших осадков за 24 часа, мм.
S - Снежный покров - Высота снежного покрова, см. При наведении курсора мыши на число - состояние снежного покрова и степень покрытия местности в баллах.